Temp
3 3 3 3 3 3 3 4 3 2 2 2 2 2 2 3 3 3 3 3 3 2 2 2 2 3 5 6 8 9 9 10 10 9 9 9 9 10 10 10 11 11 12 13 14 14 14
3 3 3 3 3 3 3 3 3 2 2 2 2 2 2 2 2 2 2 2 2 3 2 2 2 3 5 6 8 9 9 9 10 9 9 9 9 11 11 10 11 12 12 13 13 14 14
3 3 3 3 2 3 3 3 3 2 2 2 2 2 2 2 2 2 2 2 2 2 2 2 2 3 4 6 8 8 9 9 10 9 9 9 10 11 11 10 12 12 12 12 12 13 13
3 2 2 2 2 3 3 3 2 2 2 2 2 2 2 3 2 2 2 2 2 2 2 2 2 3 4 7 8 8 9 9 9 9 10 9 10 11 11 11 11 10 11 10 12 11 13
3 2 2 2 2 2 2 2 2 2 2 2 2 2 1 1 2 2 2 3 3 2 2 2 2 3 6 7 7 8 8 9 9 9 9 10 10 11 11 8 10 10 8 9 11 12 12
2 2 2 2 2 2 2 2 2 2 2 2 1 1 1 1 1 2 2 3 3 3 3 2 2 4 5 7 8 8 8 9 8 9 9 9 10 8 7 10 8 8 9 9 10 11 11
2 2 2 2 2 2 2 2 1 2 2 2 1 1 2 1 2 2 2 3 3 3 2 2 3 5 6 7 7 8 8 8 9 8 9 10 9 9 9 8 9 8 9 9 9 10 10
2 2 2 2 2 2 2 1 1 1 1 1 1 1 2 2 2 2 2 2 1 1 1 4 4 5 6 6 7 8 8 8 9 8 8 8 9 9 8 9 9 9 9 9 8 9 10
2 1 2 1 1 1 2 1 1 1 2 2 2 1 1 2 2 2 2 2 2 2 2 4 4 6 7 8 8 7 8 8 9 8 8 9 9 9 10 9 10 9 9 8 9 8 8
1 1 1 1 1 1 0 1 1 2 2 3 2 2 1 1 1 1 1 2 2 2 -2 3 4 5 7 9 8 8 7 8 8 6 6 8 8 9 8 8 9 9 9 9 9 8 7
2 1 1 1 0 0 1 1 2 2 2 2 2 2 2 1 1 1 1 2 2 2 -1 4 4 5 7 8 8 8 7 7 9 7 6 7 7 8 8 8 9 9 8 8 7 6 6
2 2 1 0 0 1 1 1 2 2 3 2 2 2 2 1 2 1 1 2 2 -1 2 4 5 6 7 8 7 8 9 9 8 8 8 7 9 9 9 8 9 7 7 5 4 4 3
2 1 1 0 0 3 1 1 3 2 2 1 2 2 2 2 2 1 2 2 -1 2 2 5 6 7 7 8 8 8 8 7 7 7 6 7 7 8 8 7 8 7 6 3 3 2 5
6 1 1 0 2 4 3 2 4 3 3 2 2 3 3 2 2 2 2 0 4 4 4 6 7 7 7 8 7 7 8 7 7 6 5 6 7 8 8 8 7 7 7 4 6 4 5
6 2 2 0 2 4 4 4 4 4 4 3 3 3 3 2 2 2 1 1 2 3 3 7 8 7 6 7 7 7 6 6 7 7 6 4 5 7 7 8 8 6 4 5 2 1 1
5 3 2 4 -0 4 4 4 5 5 5 5 4 4 3 3 2 2 2 4 4 3 7 6 6 6 6 6 7 6 6 7 7 7 7 6 5 7 7 8 6 7 5 4 0 3 5
5 3 2 4 3 3 5 4 5 6 6 6 5 4 4 3 3 4 3 4 6 7 7 7 5 6 5 6 7 7 6 7 8 7 7 6 5 6 7 6 6 6 4 3 3 2 3
5 4 2 2 4 4 5 4 5 6 6 6 5 1 5 5 3 2 4 4 5 6 6 7 7 7 6 6 6 6 6 7 8 7 7 8 4 2 6 6 6 6 5 4 2 2 2
5 3 2 1 3 4 4 5 4 5 6 5 4 5 6 6 4 4 4 5 5 6 7 7 8 8 7 6 6 7 6 7 8 7 7 7 4 2 5 6 6 6 5 4 3 1 -0
4 3 2 1 2 4 4 4 4 4 5 5 5 1 5 6 4 4 5 4 6 7 7 7 7 8 7 7 6 6 7 7 7 8 9 8 4 4 3 4 4 3 4 4 4 1 3
4 3 1 1 -0 4 4 4 4 4 5 4 4 2 2 3 3 3 4 5 6 6 7 8 8 8 7 7 7 6 7 7 8 8 7 6 3 2 4 5 5 5 6 4 3 4 3
3 2 2 1 0 1 4 3 4 4 4 4 2 2 3 2 3 3 4 5 6 6 6 7 7 7 8 7 7 6 6 7 7 7 7 6 3 3 2 5 4 3 4 4 4 5 6
2 2 1 1 0 0 2 2 1 3 3 2 1 1 1 3 2 4 4 6 6 7 7 6 7 6 6 6 6 8 8 8 7 6 5 6 4 2 2 4 4 4 4 5 5 5 6
2 2 1 0 -0 -0 -0 -0 -1 0 1 -1 -1 0 2 1 1 3 4 5 6 6 7 6 7 8 7 7 8 8 7 7 7 6 6 5 5 4 1 3 4 8 6 6 6 6 5
1 0 -1 -0 -0 -1 -0 -1 -2 -1 -1 -0 -0 -0 1 2 3 2 2 3 6 6 6 6 6 7 7 8 6 6 7 8 7 7 6 6 5 2 3 5 5 8 7 6 7 9 6
-1 -1 -1 -1 -1 -1 -1 -1 -2 -2 -2 -1 -0 -0 -1 0 1 2 3 3 3 4 5 6 6 7 7 5 5 6 7 6 6 6 6 6 5 5 6 6 5 8 9 8 8 8 9
-0 -1 -1 -1 -1 -1 -0 -1 -1 -1 -2 -1 -1 -1 -1 -1 1 1 1 3 3 3 3 4 6 6 7 4 5 5 4 6 6 5 6 6 6 6 6 5 5 6 8 8 9 8 10
-0 -1 -1 -1 -1 -1 -1 -0 -1 -1 -1 -2 -2 -1 -2 -2 -0 0 1 1 2 3 3 5 5 5 3 5 5 4 4 5 5 5 6 6 5 6 6 5 5 7 7 9 8 9 9
-1 -1 -1 -1 -1 -2 -2 -1 -0 -2 -2 -2 -2 -2 -3 -3 -1 0 1 0 -0 1 -0 3 4 4 5 3 3 3 5 4 6 6 5 6 5 5 5 5 7 8 8 10 10 9 9
Height
1523 1519 1515 1512 1506 1501 1497 1492 1487 1483 1480 1476 1471 1467 1463 1460 1458 1456 1455 1454 1453 1453 1453 1452 1451 1452 1454 1454 1450 1450 1450 1452 1456 1464 1468 1473 1479 1482 1485 1487 1490 1492 1492 1493 1494 1495 1496
1522 1517 1513 1508 1504 1498 1493 1488 1484 1479 1476 1472 1469 1464 1460 1457 1455 1453 1452 1451 1449 1449 1449 1449 1448 1449 1450 1448 1448 1448 1450 1450 1454 1460 1466 1472 1476 1481 1482 1484 1487 1488 1491 1492 1492 1493 1495
1520 1516 1512 1506 1501 1496 1490 1485 1481 1476 1473 1469 1464 1460 1457 1454 1452 1450 1448 1447 1445 1445 1445 1445 1445 1446 1444 1443 1445 1447 1449 1451 1453 1456 1463 1470 1474 1479 1480 1483 1485 1488 1491 1492 1491 1492 1493
1520 1514 1509 1503 1498 1494 1487 1483 1477 1472 1469 1464 1460 1457 1454 1451 1449 1447 1445 1443 1442 1441 1441 1442 1443 1445 1443 1441 1443 1446 1447 1448 1454 1458 1464 1469 1475 1479 1481 1481 1484 1490 1493 1497 1488 1488 1489
1516 1511 1507 1501 1494 1490 1484 1478 1474 1469 1464 1459 1455 1452 1450 1447 1445 1443 1441 1439 1438 1438 1438 1440 1442 1444 1441 1439 1441 1444 1446 1448 1452 1457 1464 1470 1475 1478 1481 1483 1489 1490 1500 1498 1492 1487 1487
1514 1511 1504 1499 1493 1487 1481 1476 1470 1465 1461 1456 1452 1449 1445 1443 1441 1439 1437 1436 1434 1434 1436 1438 1440 1445 1439 1438 1439 1444 1446 1448 1451 1457 1463 1470 1473 1477 1482 1479 1491 1493 1495 1497 1495 1489 1488
1513 1509 1502 1497 1491 1484 1478 1472 1468 1462 1457 1452 1447 1445 1442 1440 1439 1437 1435 1434 1437 1436 1435 1435 1436 1433 1433 1435 1440 1442 1446 1447 1447 1446 1461 1466 1470 1471 1475 1480 1483 1489 1493 1494 1492 1488 1488
1511 1507 1503 1496 1489 1484 1476 1470 1465 1459 1453 1448 1442 1439 1438 1437 1436 1436 1436 1435 1436 1437 1435 1432 1431 1435 1434 1436 1440 1444 1446 1449 1449 1453 1460 1467 1468 1470 1476 1479 1482 1487 1493 1495 1493 1490 1490
1509 1504 1500 1495 1488 1481 1475 1468 1462 1455 1447 1439 1434 1432 1432 1434 1434 1434 1435 1436 1435 1435 1435 1435 1433 1434 1434 1438 1441 1444 1447 1448 1451 1457 1459 1461 1468 1470 1473 1479 1481 1487 1489 1494 1494 1492 1492
1509 1503 1498 1493 1487 1479 1473 1466 1459 1451 1442 1433 1427 1425 1426 1430 1434 1432 1433 1435 1434 1435 1445 1440 1436 1436 1436 1437 1443 1446 1445 1450 1455 1462 1466 1468 1471 1470 1474 1480 1481 1488 1488 1489 1493 1495 1501
1508 1503 1498 1492 1485 1477 1471 1465 1457 1449 1440 1432 1426 1424 1423 1427 1430 1432 1435 1435 1434 1436 1468 1443 1439 1437 1439 1440 1444 1448 1446 1453 1452 1461 1466 1475 1474 1472 1477 1480 1482 1487 1487 1492 1497 1504 1504
1508 1503 1497 1492 1484 1476 1472 1465 1459 1451 1443 1436 1430 1426 1424 1427 1430 1433 1435 1436 1436 1448 1452 1438 1436 1436 1440 1443 1445 1449 1449 1450 1456 1462 1468 1473 1474 1474 1476 1480 1480 1487 1491 1500 1507 1510 1524
1508 1503 1497 1492 1484 1477 1471 1466 1461 1454 1448 1442 1437 1434 1430 1431 1433 1435 1436 1437 1447 1446 1449 1440 1436 1437 1441 1444 1449 1452 1455 1458 1462 1470 1475 1474 1476 1475 1476 1482 1485 1487 1496 1520 1525 1533 1514
1506 1503 1497 1492 1484 1478 1472 1467 1464 1459 1454 1450 1446 1442 1440 1436 1438 1438 1439 1440 1438 1441 1442 1438 1437 1440 1444 1447 1453 1456 1457 1463 1464 1467 1479 1481 1485 1479 1479 1482 1486 1491 1493 1513 1507 1525 1514
1505 1502 1496 1491 1485 1479 1473 1468 1467 1463 1459 1455 1452 1450 1446 1443 1442 1440 1441 1449 1448 1443 1442 1438 1441 1447 1452 1453 1455 1460 1463 1465 1466 1467 1476 1485 1487 1481 1481 1482 1486 1494 1506 1502 1519 1529 1534
1506 1502 1497 1491 1486 1481 1474 1469 1467 1464 1460 1456 1453 1450 1448 1444 1441 1440 1440 1440 1445 1444 1439 1443 1449 1452 1456 1459 1458 1462 1466 1464 1466 1466 1466 1476 1490 1483 1484 1484 1488 1487 1496 1506 1523 1526 1512
1506 1502 1497 1492 1486 1481 1476 1469 1467 1464 1460 1456 1452 1450 1450 1445 1441 1440 1445 1445 1443 1444 1443 1445 1452 1452 1457 1457 1458 1461 1465 1464 1464 1467 1466 1473 1481 1488 1485 1488 1490 1494 1499 1504 1509 1519 1521
1505 1502 1498 1492 1488 1482 1477 1471 1466 1464 1459 1456 1454 1454 1451 1447 1447 1450 1449 1449 1446 1446 1445 1445 1447 1449 1454 1457 1461 1462 1465 1464 1463 1465 1471 1472 1484 1502 1487 1487 1486 1486 1492 1499 1516 1519 1521
1505 1501 1497 1493 1488 1483 1478 1474 1468 1464 1460 1457 1456 1455 1453 1449 1455 1453 1452 1450 1449 1446 1446 1446 1447 1448 1452 1457 1462 1462 1463 1462 1462 1465 1469 1472 1487 1506 1492 1488 1488 1489 1491 1494 1500 1512 1523
1504 1501 1497 1493 1488 1484 1478 1474 1469 1465 1463 1460 1458 1460 1456 1455 1458 1458 1455 1454 1450 1447 1446 1446 1448 1449 1452 1456 1458 1462 1463 1462 1462 1464 1467 1469 1482 1489 1497 1493 1490 1495 1491 1493 1496 1515 1500
1503 1501 1497 1493 1490 1485 1480 1475 1471 1466 1463 1462 1460 1463 1464 1464 1460 1459 1457 1456 1452 1451 1448 1447 1449 1449 1451 1458 1460 1462 1463 1463 1465 1465 1469 1472 1489 1490 1486 1485 1486 1484 1483 1489 1494 1490 1496
1502 1500 1497 1493 1490 1485 1481 1475 1472 1467 1464 1464 1464 1465 1464 1462 1460 1460 1458 1457 1455 1452 1451 1448 1450 1451 1450 1455 1455 1461 1460 1462 1463 1468 1470 1473 1487 1488 1492 1481 1484 1486 1482 1482 1484 1482 1479
1501 1499 1496 1493 1489 1486 1481 1477 1472 1469 1466 1465 1466 1467 1467 1462 1461 1459 1460 1457 1454 1452 1452 1451 1452 1453 1455 1455 1454 1453 1456 1457 1459 1465 1471 1473 1482 1491 1494 1483 1482 1480 1471 1470 1473 1472 1471
1500 1497 1495 1492 1488 1485 1482 1478 1475 1472 1469 1469 1469 1469 1468 1465 1463 1461 1458 1456 1454 1454 1453 1453 1453 1453 1457 1456 1456 1457 1458 1460 1461 1464 1465 1473 1478 1483 1497 1485 1487 1457 1456 1457 1460 1461 1464
1497 1495 1493 1490 1487 1485 1482 1479 1477 1474 1472 1470 1469 1470 1469 1466 1463 1461 1460 1459 1455 1454 1454 1454 1454 1455 1455 1457 1461 1463 1461 1462 1464 1464 1466 1467 1476 1490 1491 1482 1473 1451 1454 1457 1456 1453 1453
1495 1493 1491 1488 1486 1484 1482 1479 1477 1475 1473 1471 1470 1470 1470 1470 1465 1463 1462 1460 1459 1456 1455 1453 1455 1454 1456 1459 1462 1465 1462 1464 1466 1467 1467 1468 1472 1481 1480 1476 1479 1455 1450 1450 1450 1457 1449
1493 1491 1489 1486 1485 1483 1480 1479 1477 1476 1473 1472 1470 1470 1470 1468 1462 1462 1462 1460 1458 1456 1456 1453 1453 1455 1455 1459 1463 1466 1468 1459 1463 1467 1465 1469 1472 1473 1475 1477 1466 1451 1449 1450 1454 1460 1448
1490 1488 1486 1484 1482 1481 1479 1477 1476 1475 1474 1473 1472 1470 1470 1467 1460 1459 1459 1459 1457 1456 1456 1453 1454 1453 1456 1459 1459 1461 1462 1458 1460 1459 1459 1461 1468 1466 1471 1476 1470 1446 1450 1451 1450 1446 1446
1487 1485 1483 1481 1479 1478 1477 1475 1473 1472 1472 1470 1469 1468 1468 1467 1459 1455 1452 1453 1454 1455 1457 1451 1448 1444 1445 1453 1456 1456 1456 1457 1453 1455 1455 1459 1457 1461 1461 1456 1444 1445 1445 1445 1445 1444 1442
Wind_Speed
22 23 24 26 26 25 27 28 25 25 25 24 22 21 21 20 19 18 18 18 16 15 15 17 14 12 14 10 19 4 1 9 28 31 28 22 17 9 7 8 6 4 2 11 14 11 8
23 23 25 27 29 26 26 28 27 27 24 23 22 22 21 18 18 17 16 16 15 15 16 14 13 14 10 8 16 23 7 9 32 34 31 26 15 9 9 6 5 7 10 10 6 9 6
23 23 25 29 28 27 31 30 27 26 24 24 22 21 19 19 16 14 15 16 15 15 14 14 11 12 13 14 10 13 13 11 30 33 34 26 13 11 7 4 10 5 2 2 7 6 5
23 24 25 27 28 29 31 30 28 28 24 22 24 20 21 20 19 16 17 16 15 13 14 9 7 9 7 4 18 9 9 14 27 27 31 28 16 14 4 7 4 6 3 1 3 7 5
22 25 26 30 31 29 32 30 28 26 25 24 22 21 22 20 16 16 17 18 15 14 10 7 8 8 6 8 17 10 9 17 22 21 21 23 19 11 4 6 3 2 4 4 4 4 2
23 26 26 30 30 29 29 30 29 27 27 27 20 22 20 16 15 15 17 14 11 8 6 3 8 5 9 9 19 15 13 12 20 24 17 19 10 4 2 6 7 5 3 2 4 1 2
24 27 26 31 32 29 31 30 31 28 29 28 25 22 17 13 11 9 13 5 2 2 5 6 6 4 1 10 14 12 16 11 11 12 7 14 4 13 14 5 5 5 4 3 3 3 3
23 25 27 30 30 33 31 30 31 31 30 28 26 20 18 10 9 8 8 4 2 4 5 11 8 14 8 14 10 11 15 6 5 3 9 4 6 6 9 8 7 7 5 2 4 1 1
23 23 26 30 31 29 31 32 32 31 35 37 32 17 16 10 8 6 6 3 3 3 2 4 3 3 7 13 8 9 13 4 8 6 2 6 2 8 11 5 6 2 3 3 4 4 2
24 24 27 30 32 29 30 31 35 36 37 32 23 22 13 6 6 4 3 1 3 4 4 2 2 2 6 12 6 8 14 4 4 9 7 5 3 9 8 1 3 3 3 2 2 3 2
23 25 26 29 31 30 32 32 30 37 34 28 21 14 5 8 3 3 1 2 5 1 6 3 3 8 13 1 18 2 10 3 6 9 4 3 1 4 7 6 6 3 5 4 3 3 2
24 24 27 29 30 30 31 29 27 31 31 25 19 15 12 11 1 2 4 4 4 5 3 1 1 4 6 3 4 6 3 13 11 10 9 4 5 1 3 4 2 8 6 6 4 2 2
24 24 26 28 31 32 30 27 24 27 28 21 18 16 15 11 10 9 5 2 4 5 1 3 4 5 6 6 5 4 1 4 4 4 3 5 3 3 4 7 5 6 5 2 4 3 4
25 24 26 27 31 30 28 24 20 22 22 19 19 20 21 23 15 9 2 4 6 2 2 4 6 11 5 4 4 2 2 3 5 5 3 4 2 1 2 3 5 2 4 4 4 1 3
27 23 25 26 29 30 26 23 20 19 16 12 13 15 17 13 7 7 2 5 2 1 3 9 11 7 4 5 4 3 3 3 2 1 5 4 3 2 4 2 2 3 2 2 6 2 2
24 24 25 27 26 29 27 24 19 16 15 14 15 11 16 16 12 7 1 5 1 2 4 6 5 1 3 1 3 3 3 3 4 1 2 3 4 2 2 4 8 3 6 3 3 1 3
23 23 24 27 29 29 27 24 21 15 16 16 10 5 18 17 9 7 3 3 3 4 5 4 3 4 4 4 2 3 6 0 1 3 5 3 3 1 2 2 5 2 1 5 4 3 3
22 22 24 26 31 30 29 24 21 20 17 15 6 3 18 12 4 2 3 4 5 4 4 3 3 3 3 3 3 2 7 2 7 8 5 2 4 3 2 0 1 2 4 4 4 3 2
20 22 22 25 29 31 29 28 21 19 16 17 7 5 13 14 4 4 2 2 2 4 3 1 2 2 2 4 4 2 4 1 11 4 6 5 2 3 3 3 3 2 3 3 4 3 5
19 22 23 24 27 31 29 27 23 17 12 10 4 3 6 8 5 2 5 4 4 4 3 3 3 3 4 2 4 4 2 3 11 8 6 5 3 4 5 5 3 3 5 5 5 3 3
17 21 23 25 24 29 30 26 25 18 10 5 5 2 2 3 4 4 3 4 4 4 5 4 3 2 5 3 2 3 2 2 3 2 4 4 3 2 3 5 4 4 4 8 8 5 6
15 19 22 23 25 28 29 25 23 21 8 6 3 3 4 3 5 4 3 4 5 4 4 3 5 4 3 4 5 7 6 3 4 2 4 1 3 2 3 2 5 5 9 9 10 7 12
14 19 23 21 25 25 27 24 23 20 14 6 5 4 3 3 3 2 1 3 5 2 3 5 3 3 4 2 2 6 3 8 6 7 3 4 5 2 4 3 6 5 8 13 5 5 9
16 19 25 19 21 23 22 20 22 17 16 10 10 4 3 3 2 2 4 2 2 3 1 2 4 2 3 7 8 12 12 10 8 4 5 5 4 2 2 4 1 4 3 5 12 4 11
16 21 26 19 19 21 23 16 18 16 14 11 10 5 3 3 5 6 6 5 4 1 1 1 2 2 8 3 3 3 2 1 1 2 4 4 4 2 2 3 7 2 2 5 5 3 8
16 23 21 16 15 19 18 16 17 13 14 14 7 9 2 3 2 5 4 5 2 2 2 2 4 6 5 2 2 3 4 5 3 3 3 4 6 3 3 2 3 3 0 2 2 1 3
19 24 21 15 13 15 18 15 14 16 14 14 8 11 5 4 4 3 3 4 4 3 2 1 4 4 4 2 2 3 3 3 5 6 5 4 3 5 3 3 6 7 4 3 2 4 3
20 21 19 17 14 13 17 17 13 15 11 13 12 10 12 6 16 14 10 6 6 4 2 1 3 2 2 3 3 4 3 5 3 5 5 6 7 4 4 4 7 5 6 4 3 5 11
20 21 19 19 17 11 12 17 13 17 12 12 12 9 11 13 17 24 30 29 24 23 11 5 4 4 9 3 1 2 2 2 3 3 1 4 5 4 7 5 3 2 6 10 17 19 13
Wind_Direction
344 338 338 335 332 332 327 328 327 327 332 322 326 317 317 316 310 305 301 291 286 281 288 296 301 279 276 225 228 150 95 222 184 184 194 188 173 158 161 167 143 176 191 215 239 261 271
334 341 337 334 331 331 327 326 328 327 327 319 324 324 326 324 318 314 307 300 293 288 286 286 290 267 270 223 240 238 282 200 184 184 190 191 184 160 160 179 160 188 207 245 272 252 257
338 341 337 335 331 331 327 326 332 326 326 322 317 317 324 324 321 316 306 305 295 288 285 287 282 249 272 242 236 242 233 218 185 189 189 192 179 179 155 130 188 160 108 240 237 221 231
338 340 337 333 334 329 332 330 331 334 327 315 320 318 323 318 315 315 313 308 304 289 282 283 279 240 247 217 222 231 202 202 191 193 196 187 178 186 185 130 68 119 87 188 301 168 225
340 339 338 336 335 333 334 334 332 329 321 318 318 318 315 310 309 311 311 308 305 292 269 273 269 220 237 219 205 209 203 184 179 182 180 172 171 186 152 115 113 99 178 189 303 203 196
346 339 339 339 338 338 340 334 330 331 324 324 328 323 316 306 310 316 313 321 313 276 261 207 205 187 241 208 192 193 173 182 167 164 146 172 178 123 103 179 187 157 152 247 216 224 116
344 342 344 342 341 342 340 338 335 329 323 326 323 319 316 315 314 329 337 356 349 18 183 194 272 207 74 184 178 204 182 167 153 106 128 179 160 193 188 157 140 127 131 180 258 298 314
345 344 342 344 345 339 338 342 337 332 327 316 308 303 308 305 314 336 350 33 355 314 305 215 317 222 312 168 157 164 179 155 134 108 121 130 195 170 136 128 121 130 139 227 280 302 288
349 348 345 348 344 349 344 340 339 334 328 322 314 287 291 299 299 307 301 329 310 209 251 64 33 221 147 158 128 160 181 107 119 94 169 148 106 123 143 135 152 119 169 184 224 333 53
348 349 348 347 349 346 346 348 345 344 340 339 331 306 268 290 310 325 211 274 173 167 87 340 20 149 130 121 57 149 178 129 157 109 14 65 350 149 124 124 112 146 179 138 84 42 262
351 351 348 352 351 356 353 354 353 356 355 351 349 347 355 218 225 268 57 113 161 257 81 151 253 142 148 357 135 117 148 129 102 124 165 71 212 130 135 176 180 146 100 97 86 93 17
354 349 352 354 355 1 357 359 2 5 5 15 27 41 59 147 205 117 149 127 154 39 82 227 333 168 95 94 54 85 38 74 62 56 83 130 136 160 129 61 82 144 79 56 55 71 17
354 350 352 356 358 3 5 3 10 12 10 18 43 49 81 96 127 134 140 104 34 67 302 141 147 119 102 116 80 59 24 64 104 110 56 32 5 14 92 81 37 72 76 350 355 17 219
356 350 351 358 3 6 5 8 17 15 17 33 53 76 78 81 89 98 25 35 50 304 259 149 114 74 81 58 84 84 84 82 37 79 122 140 155 100 6 110 163 101 146 153 215 197 276
357 355 354 357 2 7 359 9 360 7 9 29 46 44 40 40 34 355 325 50 290 321 271 120 77 71 52 39 101 86 60 107 139 98 117 118 54 43 42 101 99 186 87 150 107 48 41
358 358 355 358 357 9 357 7 356 357 353 341 333 332 13 357 343 340 50 94 44 275 95 48 88 78 113 52 71 89 175 181 133 102 146 168 89 13 116 105 38 115 145 81 16 113 273
358 1 356 1 357 3 1 1 356 352 351 341 340 339 1 356 5 46 51 24 68 55 53 79 147 107 127 139 105 124 184 228 148 117 65 112 92 64 97 188 165 120 112 58 100 121 164
358 1 360 1 2 357 360 360 358 340 347 358 359 26 0 11 52 53 13 337 339 3 15 68 96 97 105 113 99 122 188 226 171 148 125 107 117 132 177 9 215 123 165 143 124 243 88
359 358 2 358 5 356 354 0 358 352 346 355 356 338 18 30 40 6 349 336 307 342 357 51 98 77 105 126 119 158 191 152 154 140 155 174 33 58 1 15 36 210 187 126 105 82 200
359 358 354 359 357 359 350 355 1 355 347 349 14 17 12 51 47 335 8 341 352 351 329 67 91 90 110 99 28 160 146 350 188 168 136 110 109 147 183 201 141 199 186 182 143 135 192
354 356 353 351 351 356 350 351 358 2 348 4 16 71 25 348 344 338 356 343 340 14 348 29 60 136 135 105 81 117 117 82 90 163 105 117 121 108 254 231 199 215 182 185 201 189 183
350 354 353 343 348 345 347 348 353 8 7 24 37 7 341 275 300 312 347 350 13 344 7 354 101 40 86 145 181 189 142 154 167 93 130 115 127 119 296 339 211 235 223 206 210 228 255
339 346 347 344 335 343 343 350 356 6 18 48 31 22 349 296 321 117 296 310 337 334 61 48 98 90 54 329 262 211 134 142 162 145 136 132 133 108 275 327 302 281 218 200 181 197 209
320 331 344 338 327 336 345 347 354 9 20 39 13 9 342 293 334 321 338 321 11 352 328 20 52 93 135 111 81 90 94 95 101 95 144 135 115 99 249 345 347 249 172 181 204 201 210
317 328 338 333 326 338 346 341 355 355 11 10 13 16 1 296 308 319 358 309 304 44 83 36 32 122 148 119 58 59 69 106 107 103 126 130 124 96 81 286 288 304 198 137 167 273 199
323 328 335 329 318 331 347 350 347 354 354 357 355 2 341 316 266 314 312 317 289 280 329 181 155 155 152 81 102 179 187 206 192 112 43 99 105 120 182 285 255 253 177 106 123 360 202
325 330 328 321 306 331 326 356 340 342 339 348 344 349 333 278 276 304 244 293 295 279 239 267 174 172 177 124 137 182 233 156 172 181 165 143 163 211 204 254 281 245 207 141 110 224 302
317 320 322 307 297 295 329 331 341 353 332 319 319 329 327 280 283 269 254 259 290 263 219 307 110 224 80 168 172 199 184 218 159 183 178 167 174 190 183 215 261 158 101 173 204 302 314
316 313 316 309 301 286 304 329 311 339 333 301 307 310 299 264 268 288 284 268 254 257 266 278 282 187 181 119 202 130 178 147 196 219 281 197 182 183 187 212 237 211 260 294 301 301 301